Time,TemperatureF,DewpointF,PressureIn,WindDirection,WindDirectionDegrees,WindSpeedMPH,WindSpeedGustMPH,Humidity,HourlyPrecipIn,Conditions,Clouds,dailyrainin,SoftwareType,DateUTC
2014-01-22 00:00:00,29.2,15.8,29.85,NNW,338,8.9,8.9,57,0.00,,,0.00,WUHU216HW,2014-01-22 05:00:00,
2014-01-22 00:01:00,29.2,15.8,29.85,NNE,23,2.0,8.9,57,0.00,,,0.00,WUHU216HW,2014-01-22 05:01:00,
2014-01-22 00:02:00,29.2,15.8,29.84,NE,45,4.3,8.9,57,0.00,,,0.00,WUHU216HW,2014-01-22 05:02:00,
2014-01-22 00:07:00,29.0,15.7,29.85,NNE,23,2.2,8.9,57,0.00,,,0.00,WUHU216HW,2014-01-22 05:07:00,
2014-01-22 00:12:00,29.0,15.2,29.85,NE,45,4.7,9.6,56,0.00,,,0.00,WUHU216HW,2014-01-22 05:12:00,
2014-01-22 00:17:00,28.8,15.0,29.85,North,0,4.5,9.6,56,0.00,,,0.00,WUHU216HW,2014-01-22 05:17:00,
2014-01-22 00:22:00,28.8,15.0,29.85,NNE,23,4.7,11.0,56,0.00,,,0.00,WUHU216HW,2014-01-22 05:22:00,
2014-01-22 00:27:00,28.6,14.9,29.85,NW,315,4.5,11.0,56,0.00,,,0.00,WUHU216HW,2014-01-22 05:27:00,
2014-01-22 00:32:00,28.4,15.1,29.85,West,270,0.0,7.6,57,0.00,,,0.00,WUHU216HW,2014-01-22 05:32:00,
2014-01-22 00:37:00,28.1,15.6,29.86,WNW,293,0.4,4.5,59,0.00,,,0.00,WUHU216HW,2014-01-22 05:37:00,
2014-01-22 00:42:00,27.9,15.4,29.86,North,0,1.1,2.5,59,0.00,,,0.00,WUHU216HW,2014-01-22 05:42:00,
2014-01-22 00:47:00,27.7,15.2,29.86,North,0,1.1,2.5,59,0.00,,,0.00,WUHU216HW,2014-01-22 05:47:00,
2014-01-22 00:52:00,27.4,16.0,29.86,SW,225,0.7,2.2,62,0.00,,,0.00,WUHU216HW,2014-01-22 05:52:00,
2014-01-22 00:57:00,27.2,15.8,29.87,West,270,0.4,2.2,62,0.00,,,0.00,WUHU216HW,2014-01-22 05:57:00,
2014-01-22 01:02:00,27.2,15.8,29.86,North,0,1.1,2.9,62,0.00,,,0.00,WUHU216HW,2014-01-22 06:02:00,
2014-01-22 01:07:00,27.0,15.7,29.86,North,0,0.9,2.9,62,0.00,,,0.00,WUHU216HW,2014-01-22 06:07:00,
2014-01-22 01:12:00,27.0,15.7,29.86,NW,315,2.0,3.6,62,0.00,,,0.00,WUHU216HW,2014-01-22 06:12:00,
2014-01-22 01:17:00,27.0,15.7,29.87,WNW,293,0.4,3.6,62,0.00,,,0.00,WUHU216HW,2014-01-22 06:17:00,
2014-01-22 01:22:00,27.0,15.7,29.87,NNW,338,0.2,1.3,62,0.00,,,0.00,WUHU216HW,2014-01-22 06:22:00,
2014-01-22 01:27:00,27.0,15.7,29.87,NW,315,1.1,2.2,62,0.00,,,0.00,WUHU216HW,2014-01-22 06:27:00,
2014-01-22 01:32:00,26.8,15.5,29.87,ESE,113,1.3,2.2,62,0.00,,,0.00,WUHU216HW,2014-01-22 06:32:00,
2014-01-22 01:37:00,26.8,15.5,29.87,NNW,338,1.8,3.6,62,0.00,,,0.00,WUHU216HW,2014-01-22 06:37:00,
2014-01-22 01:42:00,26.8,15.5,29.87,NNW,338,2.5,3.6,62,0.00,,,0.00,WUHU216HW,2014-01-22 06:42:00,
2014-01-22 01:47:00,26.8,15.5,29.87,NNE,23,0.2,3.6,62,0.00,,,0.00,WUHU216HW,2014-01-22 06:47:00,
2014-01-22 01:52:00,26.8,15.5,29.87,NW,315,0.4,3.1,62,0.00,,,0.00,WUHU216HW,2014-01-22 06:52:00,
2014-01-22 01:57:00,26.6,15.3,29.88,NW,315,2.5,5.1,62,0.00,,,0.00,WUHU216HW,2014-01-22 06:57:00,
2014-01-22 02:02:00,26.6,15.3,29.88,North,0,2.2,5.1,62,0.00,,,0.00,WUHU216HW,2014-01-22 07:02:00,
2014-01-22 02:07:00,26.6,15.3,29.88,NW,315,2.0,3.8,62,0.00,,,0.00,WUHU216HW,2014-01-22 07:07:00,
2014-01-22 02:12:00,26.6,15.3,29.88,NNW,338,0.4,4.7,62,0.00,,,0.00,WUHU216HW,2014-01-22 07:12:00,
2014-01-22 02:17:00,26.5,15.1,29.88,North,0,1.1,5.6,62,0.00,,,0.00,WUHU216HW,2014-01-22 07:17:00,
2014-01-22 02:22:00,26.5,15.1,29.89,NNE,23,0.2,5.6,62,0.00,,,0.00,WUHU216HW,2014-01-22 07:22:00,
2014-01-22 02:27:00,26.3,14.9,29.89,West,270,0.4,2.7,62,0.00,,,0.00,WUHU216HW,2014-01-22 07:27:00,
2014-01-22 02:32:00,26.3,14.9,29.89,WSW,248,0.4,0.9,62,0.00,,,0.00,WUHU216HW,2014-01-22 07:32:00,
2014-01-22 02:37:00,26.3,14.6,29.89,WNW,293,2.0,2.5,61,0.00,,,0.00,WUHU216HW,2014-01-22 07:37:00,
2014-01-22 02:42:00,26.1,14.5,29.90,ENE,68,1.8,2.5,61,0.00,,,0.00,WUHU216HW,2014-01-22 07:42:00,
2014-01-22 02:47:00,25.9,14.3,29.90,SSW,203,0.9,2.0,61,0.00,,,0.00,WUHU216HW,2014-01-22 07:47:00,
2014-01-22 02:52:00,25.9,14.3,29.91,NNW,338,0.2,1.3,61,0.00,,,0.00,WUHU216HW,2014-01-22 07:52:00,
2014-01-22 02:57:00,25.9,14.3,29.91,SE,135,0.4,1.3,61,0.00,,,0.00,WUHU216HW,2014-01-22 07:57:00,
2014-01-22 03:02:00,25.9,14.0,29.90,NW,315,1.6,2.5,60,0.00,,,0.00,WUHU216HW,2014-01-22 08:02:00,
2014-01-22 03:07:00,25.9,14.0,29.90,NNW,338,0.9,2.5,60,0.00,,,0.00,WUHU216HW,2014-01-22 08:07:00,
2014-01-22 03:12:00,25.9,14.0,29.90,North,0,0.7,2.5,60,0.00,,,0.00,WUHU216HW,2014-01-22 08:12:00,
2014-01-22 03:17:00,25.9,14.0,29.90,NNW,338,0.4,3.1,60,0.00,,,0.00,WUHU216HW,2014-01-22 08:17:00,
2014-01-22 03:22:00,25.7,13.8,29.90,North,0,1.1,4.0,60,0.00,,,0.00,WUHU216HW,2014-01-22 08:22:00,
2014-01-22 03:27:00,25.7,13.3,29.90,NW,315,1.8,4.0,59,0.00,,,0.00,WUHU216HW,2014-01-22 08:27:00,
2014-01-22 03:32:00,25.7,13.3,29.91,NW,315,0.7,3.6,59,0.00,,,0.00,WUHU216HW,2014-01-22 08:32:00,
2014-01-22 03:37:00,25.6,13.2,29.91,NNE,23,3.4,6.5,59,0.00,,,0.00,WUHU216HW,2014-01-22 08:37:00,
2014-01-22 03:42:00,25.6,13.2,29.91,North,0,1.1,6.5,59,0.00,,,0.00,WUHU216HW,2014-01-22 08:42:00,
2014-01-22 03:47:00,25.6,13.2,29.91,NNW,338,0.4,6.3,59,0.00,,,0.00,WUHU216HW,2014-01-22 08:47:00,
2014-01-22 03:52:00,25.4,13.1,29.91,North,0,1.8,2.9,59,0.00,,,0.00,WUHU216HW,2014-01-22 08:52:00,
2014-01-22 03:57:00,25.4,13.1,29.91,NNE,23,1.8,3.6,59,0.00,,,0.00,WUHU216HW,2014-01-22 08:57:00,
2014-01-22 04:02:00,25.4,13.1,29.91,NW,315,4.0,4.7,59,0.00,,,0.00,WUHU216HW,2014-01-22 09:02:00,
2014-01-22 04:07:00,25.2,12.9,29.91,North,0,2.2,4.7,59,0.00,,,0.00,WUHU216HW,2014-01-22 09:07:00,
2014-01-22 04:12:00,25.0,12.7,29.91,North,0,1.8,4.0,59,0.00,,,0.00,WUHU216HW,2014-01-22 09:12:00,
2014-01-22 04:17:00,25.0,12.7,29.91,NNE,23,2.0,2.7,59,0.00,,,0.00,WUHU216HW,2014-01-22 09:17:00,
2014-01-22 04:22:00,24.8,12.5,29.91,North,0,1.8,2.7,59,0.00,,,0.00,WUHU216HW,2014-01-22 09:22:00,
2014-01-22 04:27:00,24.8,12.5,29.91,NNW,338,3.6,3.6,59,0.00,,,0.00,WUHU216HW,2014-01-22 09:27:00,
2014-01-22 04:32:00,24.7,12.3,29.91,North,0,1.8,3.6,59,0.00,,,0.00,WUHU216HW,2014-01-22 09:32:00,
2014-01-22 04:37:00,24.5,12.2,29.92,NNW,338,0.9,3.6,59,0.00,,,0.00,WUHU216HW,2014-01-22 09:37:00,
2014-01-22 04:42:00,24.3,12.0,29.92,NNW,338,0.4,4.3,59,0.00,,,0.00,WUHU216HW,2014-01-22 09:42:00,
2014-01-22 04:47:00,24.1,11.8,29.92,NNW,338,0.2,4.3,59,0.00,,,0.00,WUHU216HW,2014-01-22 09:47:00,
2014-01-22 04:52:00,24.1,11.8,29.92,North,0,0.7,2.2,59,0.00,,,0.00,WUHU216HW,2014-01-22 09:52:00,
2014-01-22 04:57:00,24.1,11.8,29.92,NW,315,1.8,1.8,59,0.00,,,0.00,WUHU216HW,2014-01-22 09:57:00,
2014-01-22 05:02:00,23.9,11.6,29.92,NW,315,1.1,1.8,59,0.00,,,0.00,WUHU216HW,2014-01-22 10:02:00,
2014-01-22 05:07:00,23.8,11.5,29.92,North,0,1.1,1.8,59,0.00,,,0.00,WUHU216HW,2014-01-22 10:07:00,
2014-01-22 05:12:00,23.6,11.4,29.92,NNW,338,0.4,1.8,59,0.00,,,0.00,WUHU216HW,2014-01-22 10:12:00,
2014-01-22 05:17:00,23.4,11.2,29.92,NNW,338,0.0,1.1,59,0.00,,,0.00,WUHU216HW,2014-01-22 10:17:00,
2014-01-22 05:22:00,23.2,11.0,29.92,WNW,293,0.0,0.9,59,0.00,,,0.00,WUHU216HW,2014-01-22 10:22:00,
2014-01-22 05:27:00,23.2,11.0,29.92,WNW,293,0.0,0.2,59,0.00,,,0.00,WUHU216HW,2014-01-22 10:27:00,
2014-01-22 05:32:00,23.2,11.0,29.92,WNW,293,0.0,0.0,59,0.00,,,0.00,WUHU216HW,2014-01-22 10:32:00,
2014-01-22 05:37:00,23.2,11.0,29.93,WNW,293,0.0,0.4,59,0.00,,,0.00,WUHU216HW,2014-01-22 10:37:00,
2014-01-22 05:42:00,23.0,10.8,29.93,WNW,293,0.0,0.4,59,0.00,,,0.00,WUHU216HW,2014-01-22 10:42:00,
2014-01-22 05:47:00,22.7,10.8,29.93,WNW,293,0.0,0.4,60,0.00,,,0.00,WUHU216HW,2014-01-22 10:47:00,
2014-01-22 05:52:00,22.3,10.9,29.93,NW,315,0.0,0.7,61,0.00,,,0.00,WUHU216HW,2014-01-22 10:52:00,
2014-01-22 05:57:00,22.1,10.7,29.93,NW,315,0.0,0.7,61,0.00,,,0.00,WUHU216HW,2014-01-22 10:57:00,
2014-01-22 06:02:00,22.0,10.5,29.93,NNW,338,0.0,0.7,61,0.00,,,0.00,WUHU216HW,2014-01-22 11:02:00,
2014-01-22 06:07:00,22.0,10.5,29.93,NNW,338,0.0,0.7,61,0.00,,,0.00,WUHU216HW,2014-01-22 11:07:00,
2014-01-22 06:12:00,22.0,10.5,29.94,NNW,338,0.0,0.2,61,0.00,,,0.00,WUHU216HW,2014-01-22 11:12:00,
2014-01-22 06:17:00,22.0,10.5,29.94,NNW,338,0.0,0.4,61,0.00,,,0.00,WUHU216HW,2014-01-22 11:17:00,
2014-01-22 06:22:00,21.8,10.4,29.95,NNW,338,0.4,0.4,61,0.00,,,0.00,WUHU216HW,2014-01-22 11:22:00,
2014-01-22 06:27:00,21.6,10.5,29.95,NNW,338,0.0,0.7,62,0.00,,,0.00,WUHU216HW,2014-01-22 11:27:00,
2014-01-22 06:32:00,21.4,10.4,29.95,NNW,338,1.1,1.1,62,0.00,,,0.00,WUHU216HW,2014-01-22 11:32:00,
2014-01-22 06:37:00,21.2,10.5,29.95,NW,315,0.0,1.1,63,0.00,,,0.00,WUHU216HW,2014-01-22 11:37:00,
2014-01-22 06:42:00,21.1,10.4,29.95,NNW,338,0.2,1.1,63,0.00,,,0.00,WUHU216HW,2014-01-22 11:42:00,
2014-01-22 06:47:00,21.1,10.4,29.95,North,0,2.5,2.5,63,0.00,,,0.00,WUHU216HW,2014-01-22 11:47:00,
2014-01-22 06:52:00,21.1,10.4,29.96,North,0,0.7,2.5,63,0.00,,,0.00,WUHU216HW,2014-01-22 11:52:00,
2014-01-22 06:57:00,21.2,10.3,29.96,NNW,338,0.0,2.5,62,0.00,,,0.00,WUHU216HW,2014-01-22 11:57:00,
2014-01-22 07:02:00,21.2,10.5,29.96,NNW,338,0.0,0.7,63,0.00,,,0.00,WUHU216HW,2014-01-22 12:02:00,
2014-01-22 07:07:00,20.9,10.2,29.96,NNW,338,0.4,0.4,63,0.00,,,0.00,WUHU216HW,2014-01-22 12:07:00,
2014-01-22 07:12:00,20.9,9.9,29.97,NNW,338,0.0,0.4,62,0.00,,,0.00,WUHU216HW,2014-01-22 12:12:00,
2014-01-22 07:17:00,20.7,9.7,29.97,NNW,338,0.0,0.4,62,0.00,,,0.00,WUHU216HW,2014-01-22 12:17:00,
2014-01-22 07:22:00,20.7,9.7,29.97,NNW,338,0.0,0.2,62,0.00,,,0.00,WUHU216HW,2014-01-22 12:22:00,
2014-01-22 07:27:00,20.5,9.8,29.97,NNW,338,0.0,1.6,63,0.00,,,0.00,WUHU216HW,2014-01-22 12:27:00,
2014-01-22 07:32:00,20.5,9.8,29.97,NNW,338,0.0,1.6,63,0.00,,,0.00,WUHU216HW,2014-01-22 12:32:00,
2014-01-22 07:37:00,20.3,9.6,29.97,NNW,338,0.0,1.1,63,0.00,,,0.00,WUHU216HW,2014-01-22 12:37:00,
2014-01-22 07:42:00,20.3,9.6,29.97,NNW,338,0.0,0.4,63,0.00,,,0.00,WUHU216HW,2014-01-22 12:42:00,
2014-01-22 07:47:00,20.5,9.8,29.98,NNW,338,0.0,0.4,63,0.00,,,0.00,WUHU216HW,2014-01-22 12:47:00,
2014-01-22 07:52:00,20.5,9.8,29.97,NNW,338,0.0,0.4,63,0.00,,,0.00,WUHU216HW,2014-01-22 12:52:00,
2014-01-22 07:57:00,20.9,10.2,29.98,NNW,338,0.0,0.0,63,0.00,,,0.00,WUHU216HW,2014-01-22 12:57:00,
2014-01-22 08:02:00,20.9,10.5,29.98,NW,315,0.2,0.4,64,0.00,,,0.00,WUHU216HW,2014-01-22 13:02:00,
2014-01-22 08:07:00,21.1,11.1,29.98,NW,315,0.4,0.4,65,0.00,,,0.00,WUHU216HW,2014-01-22 13:07:00,
2014-01-22 08:12:00,21.8,11.8,29.98,North,0,0.4,2.5,65,0.00,,,0.00,WUHU216HW,2014-01-22 13:12:00,
2014-01-22 08:17:00,22.7,12.2,29.98,NNE,23,1.6,4.0,64,0.00,,,0.00,WUHU216HW,2014-01-22 13:17:00,
2014-01-22 08:22:00,23.4,11.9,29.99,NNW,338,2.0,4.0,61,0.00,,,0.00,WUHU216HW,2014-01-22 13:22:00,
2014-01-22 08:27:00,23.9,12.4,29.99,NW,315,1.6,4.0,61,0.00,,,0.00,WUHU216HW,2014-01-22 13:27:00,
2014-01-22 08:32:00,24.5,12.6,29.99,North,0,2.0,4.0,60,0.00,,,0.00,WUHU216HW,2014-01-22 13:32:00,
2014-01-22 08:37:00,24.8,12.5,30.00,North,0,0.4,2.9,59,0.00,,,0.00,WUHU216HW,2014-01-22 13:37:00,
2014-01-22 08:42:00,25.4,13.1,30.00,North,0,1.1,3.1,59,0.00,,,0.00,WUHU216HW,2014-01-22 13:42:00,
2014-01-22 08:47:00,25.7,13.3,30.00,North,0,0.7,3.1,59,0.00,,,0.00,WUHU216HW,2014-01-22 13:47:00,
2014-01-22 08:52:00,26.3,13.9,30.00,North,0,0.4,2.7,59,0.00,,,0.00,WUHU216HW,2014-01-22 13:52:00,
2014-01-22 08:57:00,26.5,12.8,30.00,North,0,2.9,2.9,56,0.00,,,0.00,WUHU216HW,2014-01-22 13:57:00,
2014-01-22 09:02:00,26.6,13.0,30.00,NW,315,0.4,2.9,56,0.00,,,0.00,WUHU216HW,2014-01-22 14:02:00,
2014-01-22 09:07:00,27.4,12.8,30.01,NNW,338,0.4,2.9,54,0.00,,,0.00,WUHU216HW,2014-01-22 14:07:00,
2014-01-22 09:12:00,27.9,13.3,30.01,ENE,68,1.3,2.5,54,0.00,,,0.00,WUHU216HW,2014-01-22 14:12:00,
2014-01-22 09:17:00,27.9,12.5,30.01,North,0,2.0,2.5,52,0.00,,,0.00,WUHU216HW,2014-01-22 14:17:00,
2014-01-22 09:22:00,28.4,13.5,30.02,West,270,1.1,2.0,53,0.00,,,0.00,WUHU216HW,2014-01-22 14:22:00,
2014-01-22 09:27:00,28.8,13.4,30.02,NE,45,1.1,2.2,52,0.00,,,0.00,WUHU216HW,2014-01-22 14:27:00,
2014-01-22 09:32:00,29.0,12.7,30.02,SSE,158,1.8,3.4,50,0.00,,,0.00,WUHU216HW,2014-01-22 14:32:00,
2014-01-22 09:37:00,29.2,12.9,30.02,NNW,338,2.5,3.4,50,0.00,,,0.00,WUHU216HW,2014-01-22 14:37:00,
2014-01-22 09:42:00,29.3,11.1,30.02,NNW,338,1.6,4.3,46,0.00,,,0.00,WUHU216HW,2014-01-22 14:42:00,
2014-01-22 09:47:00,29.5,11.2,30.02,SE,135,1.1,4.3,46,0.00,,,0.00,WUHU216HW,2014-01-22 14:47:00,
2014-01-22 09:52:00,30.1,11.7,30.02,SSW,203,1.8,3.6,46,0.00,,,0.00,WUHU216HW,2014-01-22 14:52:00,
2014-01-22 09:57:00,30.2,10.4,30.02,SSW,203,1.1,2.5,43,0.00,,,0.00,WUHU216HW,2014-01-22 14:57:00,
2014-01-22 10:02:00,30.6,11.2,30.03,NNW,338,1.6,2.7,44,0.00,,,0.00,WUHU216HW,2014-01-22 15:02:00,
2014-01-22 10:07:00,31.0,10.4,30.03,SW,225,2.5,5.1,42,0.00,,,0.00,WUHU216HW,2014-01-22 15:07:00,
2014-01-22 10:12:00,31.1,9.0,30.03,NNE,23,1.8,5.1,39,0.00,,,0.00,WUHU216HW,2014-01-22 15:12:00,
2014-01-22 10:17:00,31.1,8.4,30.03,NNE,23,1.1,4.5,38,0.00,,,0.00,WUHU216HW,2014-01-22 15:17:00,
2014-01-22 10:22:00,31.3,7.9,30.03,East,90,2.5,4.5,37,0.00,,,0.00,WUHU216HW,2014-01-22 15:22:00,
2014-01-22 10:27:00,31.3,7.9,30.04,SSW,203,0.7,4.5,37,0.00,,,0.00,WUHU216HW,2014-01-22 15:27:00,
2014-01-22 10:32:00,31.5,8.1,30.04,South,180,0.9,3.4,37,0.00,,,0.00,WUHU216HW,2014-01-22 15:32:00,
2014-01-22 10:37:00,31.7,8.2,30.03,NNW,338,3.1,3.1,37,0.00,,,0.00,WUHU216HW,2014-01-22 15:37:00,
2014-01-22 10:42:00,31.7,8.2,30.04,NE,45,5.4,6.7,37,0.00,,,0.00,WUHU216HW,2014-01-22 15:42:00,
2014-01-22 10:47:00,30.6,7.3,30.04,NW,315,2.5,6.7,37,0.00,,,0.00,WUHU216HW,2014-01-22 15:47:00,
2014-01-22 10:52:00,31.0,8.2,30.04,WNW,293,1.1,6.3,38,0.00,,,0.00,WUHU216HW,2014-01-22 15:52:00,
2014-01-22 10:57:00,31.5,8.1,30.04,WNW,293,4.0,4.0,37,0.00,,,0.00,WUHU216HW,2014-01-22 15:57:00,
2014-01-22 11:02:00,31.3,7.9,30.04,North,0,4.0,7.2,37,0.00,,,0.00,WUHU216HW,2014-01-22 16:02:00,
2014-01-22 11:07:00,31.7,8.2,30.03,East,90,2.0,7.2,37,0.00,,,0.00,WUHU216HW,2014-01-22 16:07:00,
2014-01-22 11:12:00,32.0,9.2,30.04,NW,315,1.3,6.7,38,0.00,,,0.00,WUHU216HW,2014-01-22 16:12:00,
2014-01-22 11:17:00,31.7,6.9,30.03,NE,45,4.0,4.7,35,0.00,,,0.00,WUHU216HW,2014-01-22 16:17:00,
2014-01-22 11:22:00,32.0,8.6,30.03,North,0,1.8,6.3,37,0.00,,,0.00,WUHU216HW,2014-01-22 16:22:00,
2014-01-22 11:27:00,32.6,8.4,30.03,North,0,1.1,6.3,36,0.00,,,0.00,WUHU216HW,2014-01-22 16:27:00,
2014-01-22 11:32:00,32.9,9.4,30.03,West,270,0.9,3.1,37,0.00,,,0.00,WUHU216HW,2014-01-22 16:32:00,
2014-01-22 11:37:00,33.5,7.9,30.03,WSW,248,1.1,2.9,34,0.00,,,0.00,WUHU216HW,2014-01-22 16:37:00,
2014-01-22 11:42:00,33.8,7.0,30.03,SSE,158,1.6,4.5,32,0.00,,,0.00,WUHU216HW,2014-01-22 16:42:00,
2014-01-22 11:47:00,33.5,7.3,30.02,North,0,2.0,4.5,33,0.00,,,0.00,WUHU216HW,2014-01-22 16:47:00,
2014-01-22 11:52:00,33.5,6.0,30.02,NNW,338,2.9,4.3,31,0.00,,,0.00,WUHU216HW,2014-01-22 16:52:00,
2014-01-22 11:57:00,33.1,5.8,30.02,North,0,1.1,4.0,31,0.00,,,0.00,WUHU216HW,2014-01-22 16:57:00,
2014-01-22 12:02:00,33.3,6.6,30.02,NNE,23,1.8,5.6,32,0.00,,,0.00,WUHU216HW,2014-01-22 17:02:00,
2014-01-22 12:07:00,33.7,6.2,30.02,WNW,293,1.8,5.6,31,0.00,,,0.00,WUHU216HW,2014-01-22 17:07:00,
2014-01-22 12:12:00,33.5,4.6,30.01,North,0,3.4,5.4,29,0.00,,,0.00,WUHU216HW,2014-01-22 17:12:00,
2014-01-22 12:17:00,33.5,4.6,30.01,North,0,1.3,5.4,29,0.00,,,0.00,WUHU216HW,2014-01-22 17:17:00,
2014-01-22 12:22:00,33.7,5.6,30.00,NNW,338,1.1,3.8,30,0.00,,,0.00,WUHU216HW,2014-01-22 17:22:00,
2014-01-22 12:27:00,33.8,5.8,30.00,North,0,1.8,4.0,30,0.00,,,0.00,WUHU216HW,2014-01-22 17:27:00,
2014-01-22 12:32:00,34.2,6.7,30.00,NNW,338,1.3,5.6,31,0.00,,,0.00,WUHU216HW,2014-01-22 17:32:00,
2014-01-22 12:37:00,34.4,5.3,29.99,ESE,113,2.5,5.6,29,0.00,,,0.00,WUHU216HW,2014-01-22 17:37:00,
2014-01-22 12:42:00,34.4,5.3,29.99,NW,315,2.5,5.8,29,0.00,,,0.00,WUHU216HW,2014-01-22 17:42:00,
2014-01-22 12:47:00,34.4,4.4,29.99,NNW,338,1.8,5.8,28,0.00,,,0.00,WUHU216HW,2014-01-22 17:47:00,
2014-01-22 12:52:00,34.2,4.3,29.98,North,0,1.1,5.8,28,0.00,,,0.00,WUHU216HW,2014-01-22 17:52:00,
2014-01-22 12:57:00,34.4,3.6,29.98,WSW,248,2.2,5.8,27,0.00,,,0.00,WUHU216HW,2014-01-22 17:57:00,
2014-01-22 13:02:00,34.4,4.4,29.97,NNE,23,1.3,2.2,28,0.00,,,0.00,WUHU216HW,2014-01-22 18:02:00,
2014-01-22 13:07:00,35.1,6.0,29.97,NNW,338,0.9,2.2,29,0.00,,,0.00,WUHU216HW,2014-01-22 18:07:00,
2014-01-22 13:12:00,35.5,1.9,29.97,WSW,248,4.7,6.9,24,0.00,,,0.00,WUHU216HW,2014-01-22 18:12:00,
2014-01-22 13:17:00,35.5,3.6,29.96,NNE,23,1.6,6.9,26,0.00,,,0.00,WUHU216HW,2014-01-22 18:17:00,
2014-01-22 13:22:00,35.3,1.7,29.96,West,270,3.1,5.8,24,0.00,,,0.00,WUHU216HW,2014-01-22 18:22:00,
2014-01-22 13:27:00,35.3,1.7,29.97,West,270,2.2,5.1,24,0.00,,,0.00,WUHU216HW,2014-01-22 18:27:00,
2014-01-22 13:32:00,35.6,2.0,29.97,NW,315,1.8,5.1,24,0.00,,,0.00,WUHU216HW,2014-01-22 18:32:00,
2014-01-22 13:37:00,35.8,2.2,29.97,North,0,3.4,4.3,24,0.00,,,0.00,WUHU216HW,2014-01-22 18:37:00,
2014-01-22 13:42:00,35.6,1.2,29.97,NW,315,7.6,7.6,23,0.00,,,0.00,WUHU216HW,2014-01-22 18:42:00,
2014-01-22 13:47:00,35.8,1.3,29.97,NNW,338,2.7,7.6,23,0.00,,,0.00,WUHU216HW,2014-01-22 18:47:00,
2014-01-22 13:52:00,36.2,1.6,29.97,SW,225,1.8,4.7,23,0.00,,,0.00,WUHU216HW,2014-01-22 18:52:00,
2014-01-22 13:57:00,36.2,1.6,29.97,NNW,338,2.9,5.8,23,0.00,,,0.00,WUHU216HW,2014-01-22 18:57:00,
2014-01-22 14:02:00,36.0,2.4,29.96,NNW,338,3.1,5.8,24,0.00,,,0.00,WUHU216HW,2014-01-22 19:02:00,
2014-01-22 14:07:00,36.0,2.4,29.97,NNW,338,1.8,5.4,24,0.00,,,0.00,WUHU216HW,2014-01-22 19:07:00,
2014-01-22 14:12:00,36.0,4.1,29.97,East,90,1.1,3.8,26,0.00,,,0.00,WUHU216HW,2014-01-22 19:12:00,
2014-01-22 14:17:00,36.0,2.4,29.96,SW,225,1.6,6.3,24,0.00,,,0.00,WUHU216HW,2014-01-22 19:17:00,
2014-01-22 14:22:00,35.8,3.9,29.96,WNW,293,2.5,6.3,26,0.00,,,0.00,WUHU216HW,2014-01-22 19:22:00,
2014-01-22 14:27:00,36.0,5.0,29.96,NW,315,1.1,3.8,27,0.00,,,0.00,WUHU216HW,2014-01-22 19:27:00,
2014-01-22 14:32:00,36.2,5.9,29.96,West,270,1.6,3.4,28,0.00,,,0.00,WUHU216HW,2014-01-22 19:32:00,
2014-01-22 14:37:00,36.4,7.8,29.96,WNW,293,4.5,4.5,30,0.00,,,0.00,WUHU216HW,2014-01-22 19:37:00,
2014-01-22 14:42:00,36.2,7.7,29.96,SW,225,3.6,6.0,30,0.00,,,0.00,WUHU216HW,2014-01-22 19:42:00,
2014-01-22 14:47:00,36.0,8.8,29.96,East,90,0.9,6.0,32,0.00,,,0.00,WUHU216HW,2014-01-22 19:47:00,
2014-01-22 14:52:00,36.2,8.4,29.96,SW,225,2.2,6.0,31,0.00,,,0.00,WUHU216HW,2014-01-22 19:52:00,
2014-01-22 14:57:00,36.0,8.2,29.96,WSW,248,1.1,4.7,31,0.00,,,0.00,WUHU216HW,2014-01-22 19:57:00,
2014-01-22 15:02:00,36.2,9.0,29.96,WSW,248,2.2,6.5,32,0.00,,,0.00,WUHU216HW,2014-01-22 20:02:00,
2014-01-22 15:07:00,36.0,8.8,29.95,West,270,4.0,6.5,32,0.00,,,0.00,WUHU216HW,2014-01-22 20:07:00,
2014-01-22 15:12:00,36.2,9.0,29.95,East,90,1.3,4.0,32,0.00,,,0.00,WUHU216HW,2014-01-22 20:12:00,
2014-01-22 15:17:00,36.4,9.8,29.95,SE,135,1.1,4.0,33,0.00,,,0.00,WUHU216HW,2014-01-22 20:17:00,
2014-01-22 15:22:00,36.4,9.8,29.95,ESE,113,1.3,2.5,33,0.00,,,0.00,WUHU216HW,2014-01-22 20:22:00,
2014-01-22 15:27:00,36.4,9.8,29.95,South,180,0.9,2.5,33,0.00,,,0.00,WUHU216HW,2014-01-22 20:27:00,
2014-01-22 15:32:00,35.8,8.6,29.95,SE,135,2.0,3.4,32,0.00,,,0.00,WUHU216HW,2014-01-22 20:32:00,
2014-01-22 15:37:00,35.1,8.7,29.95,NNE,23,0.2,4.0,33,0.00,,,0.00,WUHU216HW,2014-01-22 20:37:00,
2014-01-22 15:42:00,34.9,7.9,29.95,SSW,203,3.4,4.7,32,0.00,,,0.00,WUHU216HW,2014-01-22 20:42:00,
2014-01-22 15:47:00,34.9,8.6,29.95,WSW,248,1.1,5.4,33,0.00,,,0.00,WUHU216HW,2014-01-22 20:47:00,
2014-01-22 15:52:00,34.9,9.2,29.95,NW,315,0.7,5.4,34,0.00,,,0.00,WUHU216HW,2014-01-22 20:52:00,
2014-01-22 15:57:00,35.1,8.0,29.95,SW,225,5.4,5.4,32,0.00,,,0.00,WUHU216HW,2014-01-22 20:57:00,
2014-01-22 16:02:00,35.1,8.0,29.95,WNW,293,1.3,5.4,32,0.00,,,0.00,WUHU216HW,2014-01-22 21:02:00,
2014-01-22 16:07:00,34.9,7.3,29.95,SSW,203,4.9,6.0,31,0.00,,,0.00,WUHU216HW,2014-01-22 21:07:00,
2014-01-22 16:12:00,34.7,7.1,29.95,WSW,248,1.1,6.0,31,0.00,,,0.00,WUHU216HW,2014-01-22 21:12:00,
2014-01-22 16:17:00,34.7,7.7,29.96,SSE,158,1.8,4.9,32,0.00,,,0.00,WUHU216HW,2014-01-22 21:17:00,
2014-01-22 16:22:00,34.6,3.7,29.96,WSW,248,5.4,5.4,27,0.00,,,0.00,WUHU216HW,2014-01-22 21:22:00,
2014-01-22 16:27:00,34.6,4.6,29.96,WSW,248,1.3,5.4,28,0.00,,,0.00,WUHU216HW,2014-01-22 21:27:00,
2014-01-22 16:32:00,34.6,4.6,29.96,South,180,1.6,5.4,28,0.00,,,0.00,WUHU216HW,2014-01-22 21:32:00,
2014-01-22 16:37:00,34.4,4.4,29.96,WSW,248,0.4,3.6,28,0.00,,,0.00,WUHU216HW,2014-01-22 21:37:00,
2014-01-22 16:42:00,34.4,3.6,29.97,South,180,0.0,3.6,27,0.00,,,0.00,WUHU216HW,2014-01-22 21:42:00,
2014-01-22 16:47:00,34.4,5.3,29.97,SSE,158,1.1,1.6,29,0.00,,,0.00,WUHU216HW,2014-01-22 21:47:00,
2014-01-22 16:52:00,34.4,2.7,29.97,SW,225,1.1,3.4,26,0.00,,,0.00,WUHU216HW,2014-01-22 21:52:00,
2014-01-22 16:57:00,34.2,2.5,29.97,WNW,293,0.4,3.4,26,0.00,,,0.00,WUHU216HW,2014-01-22 21:57:00,
2014-01-22 17:02:00,34.2,3.4,29.97,WNW,293,0.4,3.1,27,0.00,,,0.00,WUHU216HW,2014-01-22 22:02:00,
2014-01-22 17:07:00,34.2,2.5,29.97,WSW,248,0.7,1.8,26,0.00,,,0.00,WUHU216HW,2014-01-22 22:07:00,
2014-01-22 17:12:00,34.2,3.4,29.97,SW,225,1.8,1.8,27,0.00,,,0.00,WUHU216HW,2014-01-22 22:12:00,
2014-01-22 17:17:00,34.2,3.4,29.97,WNW,293,0.0,1.8,27,0.00,,,0.00,WUHU216HW,2014-01-22 22:17:00,
2014-01-22 17:22:00,34.0,4.1,29.97,West,270,0.0,1.8,28,0.00,,,0.00,WUHU216HW,2014-01-22 22:22:00,
2014-01-22 17:27:00,33.8,3.2,29.97,West,270,0.9,2.7,27,0.00,,,0.00,WUHU216HW,2014-01-22 22:27:00,
2014-01-22 17:32:00,33.8,4.0,29.97,WSW,248,0.0,2.7,28,0.00,,,0.00,WUHU216HW,2014-01-22 22:32:00,
2014-01-22 17:37:00,33.8,4.0,29.97,SW,225,0.0,1.3,28,0.00,,,0.00,WUHU216HW,2014-01-22 22:37:00,
2014-01-22 17:42:00,33.7,4.7,29.97,SW,225,0.0,1.1,29,0.00,,,0.00,WUHU216HW,2014-01-22 22:42:00,
2014-01-22 17:47:00,33.5,4.6,29.97,SW,225,0.0,1.1,29,0.00,,,0.00,WUHU216HW,2014-01-22 22:47:00,
2014-01-22 17:52:00,33.5,4.6,29.98,SW,225,0.9,1.1,29,0.00,,,0.00,WUHU216HW,2014-01-22 22:52:00,
2014-01-22 17:57:00,33.3,5.3,29.98,SW,225,0.7,1.8,30,0.00,,,0.00,WUHU216HW,2014-01-22 22:57:00,
2014-01-22 18:02:00,33.1,5.1,29.98,SW,225,0.0,1.8,30,0.00,,,0.00,WUHU216HW,2014-01-22 23:02:00,
2014-01-22 18:07:00,32.9,5.6,29.99,SW,225,0.0,1.1,31,0.00,,,0.00,WUHU216HW,2014-01-22 23:07:00,
2014-01-22 18:12:00,32.8,5.4,29.99,SW,225,0.0,0.4,31,0.00,,,0.00,WUHU216HW,2014-01-22 23:12:00,
2014-01-22 18:17:00,32.6,5.2,29.99,SW,225,0.0,0.4,31,0.00,,,0.00,WUHU216HW,2014-01-22 23:17:00,
2014-01-22 18:22:00,32.4,5.1,29.99,SW,225,0.0,0.2,31,0.00,,,0.00,WUHU216HW,2014-01-22 23:22:00,
2014-01-22 18:27:00,32.4,5.8,29.99,SW,225,0.0,0.0,32,0.00,,,0.00,WUHU216HW,2014-01-22 23:27:00,
2014-01-22 18:32:00,32.0,5.4,29.99,SW,225,0.0,0.0,32,0.00,,,0.00,WUHU216HW,2014-01-22 23:32:00,
2014-01-22 18:37:00,32.0,5.4,30.00,SW,225,0.0,0.0,32,0.00,,,0.00,WUHU216HW,2014-01-22 23:37:00,
2014-01-22 18:42:00,32.0,5.4,30.00,SW,225,0.0,0.0,32,0.00,,,0.00,WUHU216HW,2014-01-22 23:42:00,
2014-01-22 18:47:00,31.9,5.9,30.00,SW,225,0.0,0.0,33,0.00,,,0.00,WUHU216HW,2014-01-22 23:47:00,
2014-01-22 18:52:00,31.7,5.7,30.00,SW,225,0.0,0.0,33,0.00,,,0.00,WUHU216HW,2014-01-22 23:52:00,
2014-01-22 18:57:00,31.5,5.6,30.00,SW,225,0.0,0.0,33,0.00,,,0.00,WUHU216HW,2014-01-22 23:57:00,
2014-01-22 19:02:00,31.3,5.4,30.00,SW,225,0.0,0.0,33,0.00,,,0.00,WUHU216HW,2014-01-23 00:02:00,
2014-01-22 19:07:00,31.1,5.2,30.00,SW,225,0.0,0.0,33,0.00,,,0.00,WUHU216HW,2014-01-23 00:07:00,
2014-01-22 19:12:00,31.0,6.3,30.00,SW,225,0.0,0.0,35,0.00,,,0.00,WUHU216HW,2014-01-23 00:12:00,
2014-01-22 19:17:00,30.8,6.1,30.00,SW,225,0.0,0.0,35,0.00,,,0.00,WUHU216HW,2014-01-23 00:17:00,
2014-01-22 19:22:00,30.4,5.9,30.00,SW,225,0.0,0.7,35,0.00,,,0.00,WUHU216HW,2014-01-23 00:22:00,
2014-01-22 19:27:00,30.2,6.3,30.00,SSW,203,0.0,1.1,36,0.00,,,0.00,WUHU216HW,2014-01-23 00:27:00,
2014-01-22 19:32:00,30.1,6.8,30.00,SSW,203,0.0,1.1,37,0.00,,,0.00,WUHU216HW,2014-01-23 00:32:00,
2014-01-22 19:37:00,30.1,6.8,30.00,SSW,203,0.0,0.0,37,0.00,,,0.00,WUHU216HW,2014-01-23 00:37:00,
2014-01-22 19:42:00,29.9,6.6,30.00,SSW,203,0.0,0.0,37,0.00,,,0.00,WUHU216HW,2014-01-23 00:42:00,
2014-01-22 19:47:00,29.7,7.1,30.00,SSW,203,0.0,0.0,38,0.00,,,0.00,WUHU216HW,2014-01-23 00:47:00,
2014-01-22 19:52:00,29.2,6.6,30.00,SSW,203,0.0,0.2,38,0.00,,,0.00,WUHU216HW,2014-01-23 00:52:00,
2014-01-22 19:56:00,29.2,6.6,30.00,SSW,203,0.0,0.2,38,0.00,,,0.00,WUHU216HW,2014-01-23 00:56:00,
2014-01-22 19:57:00,29.2,7.2,30.00,SSW,203,0.0,0.2,39,0.00,,,0.00,WUHU216HW,2014-01-23 00:57:00,
2014-01-22 19:58:00,29.2,7.2,30.00,SSW,203,0.0,0.2,39,0.00,,,0.00,WUHU216HW,2014-01-23 00:58:00,
2014-01-22 19:59:00,29.2,7.2,30.00,SSW,203,0.0,0.0,39,0.00,,,0.00,WUHU216HW,2014-01-23 00:59:00,
2014-01-22 20:00:00,29.2,7.2,30.00,SSW,203,0.0,0.0,39,0.00,,,0.00,WUHU216HW,2014-01-23 01:00:00,
2014-01-22 20:01:00,29.2,7.2,30.00,SSW,203,0.0,0.0,39,0.00,,,0.00,WUHU216HW,2014-01-23 01:01:00,
2014-01-22 20:02:00,29.2,7.2,30.00,SSW,203,0.0,0.0,39,0.00,,,0.00,WUHU216HW,2014-01-23 01:02:00,
2014-01-22 20:03:00,29.2,7.2,30.00,SSW,203,0.0,0.4,39,0.00,,,0.00,WUHU216HW,2014-01-23 01:03:00,
2014-01-22 20:04:00,29.2,7.2,30.00,SSW,203,0.0,0.4,39,0.00,,,0.00,WUHU216HW,2014-01-23 01:04:00,
2014-01-22 20:05:00,29.2,7.8,30.00,SSW,203,0.0,0.4,40,0.00,,,0.00,WUHU216HW,2014-01-23 01:05:00,
2014-01-22 20:06:00,29.2,8.4,30.00,SSW,203,0.0,0.4,41,0.00,,,0.00,WUHU216HW,2014-01-23 01:06:00,
2014-01-22 20:07:00,29.0,8.2,30.00,SSW,203,0.0,0.4,41,0.00,,,0.00,WUHU216HW,2014-01-23 01:07:00,
2014-01-22 20:08:00,29.0,8.2,30.00,SSW,203,0.0,0.4,41,0.00,,,0.00,WUHU216HW,2014-01-23 01:08:00,
2014-01-22 20:09:00,29.0,8.2,30.00,SSW,203,0.0,0.4,41,0.00,,,0.00,WUHU216HW,2014-01-23 01:09:00,
2014-01-22 20:10:00,29.0,8.2,30.00,SSW,203,0.0,0.4,41,0.00,,,0.00,WUHU216HW,2014-01-23 01:10:00,
2014-01-22 20:11:00,29.0,8.2,30.00,SSW,203,0.0,0.4,41,0.00,,,0.00,WUHU216HW,2014-01-23 01:11:00,
2014-01-22 20:12:00,29.0,8.2,30.00,SE,135,0.9,0.9,41,0.00,,,0.00,WUHU216HW,2014-01-23 01:12:00,
2014-01-22 20:13:00,29.0,8.2,30.00,SE,135,0.4,0.9,41,0.00,,,0.00,WUHU216HW,2014-01-23 01:13:00,
2014-01-22 20:14:00,28.8,8.0,30.00,SE,135,0.0,0.9,41,0.00,,,0.00,WUHU216HW,2014-01-23 01:14:00,
2014-01-22 20:15:00,28.8,8.0,30.00,SE,135,0.0,0.9,41,0.00,,,0.00,WUHU216HW,2014-01-23 01:15:00,
2014-01-22 20:16:00,28.8,8.0,30.00,SE,135,0.0,0.9,41,0.00,,,0.00,WUHU216HW,2014-01-23 01:16:00,
2014-01-22 20:17:00,28.6,7.8,30.00,SE,135,0.0,0.9,41,0.00,,,0.00,WUHU216HW,2014-01-23 01:17:00,
2014-01-22 20:18:00,28.6,7.8,30.00,SE,135,0.0,0.9,41,0.00,,,0.00,WUHU216HW,2014-01-23 01:18:00,
2014-01-22 20:19:00,28.4,7.8,30.00,SE,135,0.2,0.9,41,0.00,,,0.00,WUHU216HW,2014-01-23 01:19:00,
2014-01-22 20:20:00,28.4,7.8,30.00,SE,135,0.4,0.9,41,0.00,,,0.00,WUHU216HW,2014-01-23 01:20:00,
2014-01-22 20:21:00,28.4,7.8,30.00,SE,135,0.2,0.9,41,0.00,,,0.00,WUHU216HW,2014-01-23 01:21:00,
2014-01-22 20:22:00,28.3,7.6,30.00,SE,135,0.0,0.9,41,0.00,,,0.00,WUHU216HW,2014-01-23 01:22:00,
2014-01-22 20:23:00,28.3,7.6,30.00,SE,135,0.0,0.4,41,0.00,,,0.00,WUHU216HW,2014-01-23 01:23:00,
2014-01-22 20:24:00,28.3,7.6,30.00,SE,135,0.0,0.4,41,0.00,,,0.00,WUHU216HW,2014-01-23 01:24:00,
2014-01-22 20:25:00,28.3,7.6,30.00,SE,135,0.0,0.4,41,0.00,,,0.00,WUHU216HW,2014-01-23 01:25:00,
2014-01-22 20:26:00,28.3,8.0,30.00,SE,135,0.2,0.4,42,0.00,,,0.00,WUHU216HW,2014-01-23 01:26:00,
2014-01-22 20:27:00,28.3,8.0,30.00,SE,135,0.0,0.4,42,0.00,,,0.00,WUHU216HW,2014-01-23 01:27:00,
2014-01-22 20:28:00,28.1,7.9,30.00,SE,135,0.0,0.4,42,0.00,,,0.00,WUHU216HW,2014-01-23 01:28:00,
2014-01-22 20:29:00,28.3,8.0,30.00,SE,135,0.0,0.4,42,0.00,,,0.00,WUHU216HW,2014-01-23 01:29:00,
2014-01-22 20:30:00,28.3,8.0,30.00,SE,135,0.0,0.4,42,0.00,,,0.00,WUHU216HW,2014-01-23 01:30:00,
2014-01-22 20:31:00,28.3,8.6,30.00,SE,135,0.0,0.4,43,0.00,,,0.00,WUHU216HW,2014-01-23 01:31:00,
2014-01-22 20:32:00,28.3,8.6,30.00,SE,135,0.0,0.4,43,0.00,,,0.00,WUHU216HW,2014-01-23 01:32:00,
2014-01-22 20:33:00,28.3,8.6,30.00,SE,135,0.0,0.4,43,0.00,,,0.00,WUHU216HW,2014-01-23 01:33:00,
2014-01-22 20:34:00,28.3,8.6,30.00,SE,135,0.0,0.4,43,0.00,,,0.00,WUHU216HW,2014-01-23 01:34:00,
2014-01-22 20:35:00,28.3,8.6,30.01,SE,135,0.0,0.4,43,0.00,,,0.00,WUHU216HW,2014-01-23 01:35:00,
2014-01-22 20:36:00,28.1,8.4,30.00,SE,135,0.0,0.2,43,0.00,,,0.00,WUHU216HW,2014-01-23 01:36:00,
2014-01-22 20:37:00,28.1,8.4,30.01,SE,135,0.0,0.0,43,0.00,,,0.00,WUHU216HW,2014-01-23 01:37:00,
2014-01-22 20:38:00,28.1,8.4,30.00,SE,135,0.0,0.4,43,0.00,,,0.00,WUHU216HW,2014-01-23 01:38:00,
2014-01-22 20:39:00,28.1,8.4,30.01,SE,135,0.0,0.4,43,0.00,,,0.00,WUHU216HW,2014-01-23 01:39:00,
2014-01-22 20:40:00,28.1,8.4,30.01,SE,135,0.0,0.4,43,0.00,,,0.00,WUHU216HW,2014-01-23 01:40:00,
2014-01-22 20:41:00,28.1,8.4,30.01,SE,135,0.4,0.4,43,0.00,,,0.00,WUHU216HW,2014-01-23 01:41:00,
2014-01-22 20:42:00,28.1,8.4,30.01,SE,135,0.0,0.4,43,0.00,,,0.00,WUHU216HW,2014-01-23 01:42:00,
2014-01-22 20:43:00,28.1,8.4,30.01,SE,135,0.0,0.4,43,0.00,,,0.00,WUHU216HW,2014-01-23 01:43:00,
2014-01-22 20:44:00,28.1,8.9,30.01,SE,135,0.0,0.4,44,0.00,,,0.00,WUHU216HW,2014-01-23 01:44:00,
2014-01-22 20:45:00,28.1,8.9,30.01,SE,135,0.0,0.4,44,0.00,,,0.00,WUHU216HW,2014-01-23 01:45:00,
2014-01-22 20:46:00,28.1,8.9,30.01,SE,135,0.0,0.4,44,0.00,,,0.00,WUHU216HW,2014-01-23 01:46:00,
2014-01-22 20:47:00,28.1,8.9,30.01,SE,135,0.0,0.4,44,0.00,,,0.00,WUHU216HW,2014-01-23 01:47:00,
2014-01-22 20:48:00,28.1,8.9,30.01,SE,135,0.0,0.4,44,0.00,,,0.00,WUHU216HW,2014-01-23 01:48:00,
2014-01-22 20:49:00,28.1,8.9,30.01,SE,135,0.0,0.4,44,0.00,,,0.00,WUHU216HW,2014-01-23 01:49:00,
2014-01-22 20:50:00,28.1,8.9,30.01,SE,135,0.0,0.4,44,0.00,,,0.00,WUHU216HW,2014-01-23 01:50:00,
2014-01-22 20:51:00,28.1,8.9,30.01,SE,135,0.0,0.2,44,0.00,,,0.00,WUHU216HW,2014-01-23 01:51:00,
2014-01-22 20:52:00,28.1,8.9,30.01,SE,135,0.0,0.0,44,0.00,,,0.00,WUHU216HW,2014-01-23 01:52:00,
2014-01-22 20:53:00,28.1,8.9,30.01,SE,135,0.0,0.0,44,0.00,,,0.00,WUHU216HW,2014-01-23 01:53:00,
2014-01-22 20:54:00,28.1,8.9,30.01,SE,135,0.0,0.0,44,0.00,,,0.00,WUHU216HW,2014-01-23 01:54:00,
2014-01-22 20:55:00,28.1,8.9,30.01,SE,135,0.0,0.0,44,0.00,,,0.00,WUHU216HW,2014-01-23 01:55:00,
2014-01-22 20:56:00,28.1,8.9,30.01,SE,135,0.2,0.2,44,0.00,,,0.00,WUHU216HW,2014-01-23 01:56:00,
2014-01-22 20:57:00,28.1,8.9,30.01,SE,135,0.0,0.2,44,0.00,,,0.00,WUHU216HW,2014-01-23 01:57:00,
2014-01-22 20:58:00,28.1,8.9,30.01,SE,135,0.0,0.2,44,0.00,,,0.00,WUHU216HW,2014-01-23 01:58:00,
2014-01-22 20:59:00,28.1,8.9,30.01,SE,135,0.0,0.2,44,0.00,,,0.00,WUHU216HW,2014-01-23 01:59:00,
2014-01-22 21:00:00,28.1,8.9,30.01,SE,135,0.0,0.2,44,0.00,,,0.00,WUHU216HW,2014-01-23 02:00:00,
2014-01-22 21:01:00,28.1,8.9,30.01,SE,135,0.0,0.2,44,0.00,,,0.00,WUHU216HW,2014-01-23 02:01:00,
2014-01-22 21:02:00,28.1,8.9,30.02,SE,135,0.0,0.2,44,0.00,,,0.00,WUHU216HW,2014-01-23 02:02:00,
2014-01-22 21:03:00,28.1,8.9,30.02,SE,135,0.0,0.2,44,0.00,,,0.00,WUHU216HW,2014-01-23 02:03:00,
2014-01-22 21:04:00,28.1,8.9,30.02,SE,135,0.0,0.2,44,0.00,,,0.00,WUHU216HW,2014-01-23 02:04:00,
2014-01-22 21:05:00,28.1,8.9,30.01,SE,135,0.0,0.2,44,0.00,,,0.00,WUHU216HW,2014-01-23 02:05:00,
2014-01-22 21:06:00,28.1,8.9,30.01,SE,135,0.0,0.2,44,0.00,,,0.00,WUHU216HW,2014-01-23 02:06:00,
2014-01-22 21:07:00,28.1,8.9,30.01,SE,135,0.2,0.4,44,0.00,,,0.00,WUHU216HW,2014-01-23 02:07:00,
2014-01-22 21:08:00,28.1,8.9,30.02,SSE,158,0.2,0.7,44,0.00,,,0.00,WUHU216HW,2014-01-23 02:08:00,
2014-01-22 21:09:00,28.1,8.9,30.02,SW,225,0.7,0.7,44,0.00,,,0.00,WUHU216HW,2014-01-23 02:09:00,
2014-01-22 21:10:00,28.1,8.9,30.02,SW,225,0.9,0.9,44,0.00,,,0.00,WUHU216HW,2014-01-23 02:10:00,
2014-01-22 21:11:00,28.1,8.4,30.02,West,270,1.1,1.3,43,0.00,,,0.00,WUHU216HW,2014-01-23 02:11:00,
2014-01-22 21:12:00,28.1,8.9,30.02,West,270,1.8,1.8,44,0.00,,,0.00,WUHU216HW,2014-01-23 02:12:00,
2014-01-22 21:13:00,27.9,8.7,30.02,West,270,1.3,1.8,44,0.00,,,0.00,WUHU216HW,2014-01-23 02:13:00,
2014-01-22 21:14:00,27.7,9.0,30.02,West,270,1.8,1.8,45,0.00,,,0.00,WUHU216HW,2014-01-23 02:14:00,
2014-01-22 21:15:00,27.4,9.2,30.02,West,270,1.1,1.8,46,0.00,,,0.00,WUHU216HW,2014-01-23 02:15:00,
2014-01-22 22:00:00,27.0,7.8,30.03,WSW,248,1.1,1.1,44,0.00,,,0.00,WUHU216HW,2014-01-23 03:00:00,
2014-01-22 22:05:00,27.0,7.8,30.03,WNW,293,0.4,1.1,44,0.00,,,0.00,WUHU216HW,2014-01-23 03:05:00,
2014-01-22 22:10:00,26.8,7.7,30.03,WNW,293,0.0,1.1,44,0.00,,,0.00,WUHU216HW,2014-01-23 03:10:00,
2014-01-22 22:15:00,26.6,7.6,30.03,WNW,293,0.0,1.3,44,0.00,,,0.00,WUHU216HW,2014-01-23 03:15:00,
2014-01-22 22:20:00,26.8,7.7,30.03,SW,225,0.7,1.3,44,0.00,,,0.00,WUHU216HW,2014-01-23 03:20:00,
2014-01-22 22:25:00,27.0,7.8,30.03,SW,225,0.0,1.1,44,0.00,,,0.00,WUHU216HW,2014-01-23 03:25:00,
2014-01-22 22:30:00,27.0,7.8,30.03,WSW,248,0.0,1.1,44,0.00,,,0.00,WUHU216HW,2014-01-23 03:30:00,
2014-01-22 22:35:00,27.0,7.8,30.03,WSW,248,0.0,1.1,44,0.00,,,0.00,WUHU216HW,2014-01-23 03:35:00,
2014-01-22 22:40:00,27.0,7.4,30.03,WSW,248,0.7,1.8,43,0.00,,,0.00,WUHU216HW,2014-01-23 03:40:00,
2014-01-22 22:45:00,26.8,7.2,30.03,North,0,0.9,1.8,43,0.00,,,0.00,WUHU216HW,2014-01-23 03:45:00,
2014-01-22 22:50:00,26.6,7.0,30.04,North,0,0.4,1.8,43,0.00,,,0.00,WUHU216HW,2014-01-23 03:50:00,
2014-01-22 22:55:00,26.5,6.8,30.04,North,0,0.4,1.8,43,0.00,,,0.00,WUHU216HW,2014-01-23 03:55:00,
2014-01-22 23:00:00,26.3,6.8,30.04,NW,315,0.4,4.0,43,0.00,,,0.00,WUHU216HW,2014-01-23 04:00:00,
2014-01-22 23:05:00,26.3,7.2,30.04,NNW,338,0.4,4.0,44,0.00,,,0.00,WUHU216HW,2014-01-23 04:05:00,
2014-01-22 23:10:00,26.1,7.0,30.04,NNW,338,0.4,1.8,44,0.00,,,0.00,WUHU216HW,2014-01-23 04:10:00,
2014-01-22 23:15:00,25.9,6.8,30.03,NW,315,0.0,1.8,44,0.00,,,0.00,WUHU216HW,2014-01-23 04:15:00,
2014-01-22 23:20:00,25.7,6.8,30.04,NW,315,1.1,1.1,44,0.00,,,0.00,WUHU216HW,2014-01-23 04:20:00,
2014-01-22 23:25:00,25.4,6.8,30.03,NW,315,1.1,1.1,45,0.00,,,0.00,WUHU216HW,2014-01-23 04:25:00,
2014-01-22 23:30:00,25.2,6.8,30.03,WNW,293,0.7,1.3,45,0.00,,,0.00,WUHU216HW,2014-01-23 04:30:00,
2014-01-22 23:35:00,24.8,6.4,30.03,WNW,293,0.2,1.3,45,0.00,,,0.00,WUHU216HW,2014-01-23 04:35:00,
2014-01-22 23:40:00,24.8,6.4,30.03,WNW,293,0.4,0.9,45,0.00,,,0.00,WUHU216HW,2014-01-23 04:40:00,
2014-01-22 23:45:00,24.1,7.2,30.04,NW,315,0.2,1.1,48,0.00,,,0.00,WUHU216HW,2014-01-23 04:45:00,
2014-01-22 23:50:00,23.8,6.4,30.04,NW,315,0.0,1.1,47,0.00,,,0.00,WUHU216HW,2014-01-23 04:50:00,
2014-01-22 23:55:00,23.9,6.6,30.04,NNE,23,1.8,1.8,47,0.00,,,0.00,WUHU216HW,2014-01-23 04:55:00,